| time (UTC) | temp C | wind direction | speed KPH | gust KPH | rain 1hr cm | rain 24hr cm | rain mn cm | humidity % | barometer mb |
| 20260505024605 | 19 | 120 | 1.6 | 6.4 | 0.00 | 0.00 | 0.00 | 69 | 1031.3 |
| 20260505023044 | 19 | 122 | 0.0 | 4.8 | 0.00 | 0.00 | 0.00 | 70 | 1031.4 |
| 20260505021601 | 19 | 85 | 1.6 | 8.0 | 0.00 | 0.00 | 0.00 | 69 | 1031.4 |
| 20260505020045 | 19 | 102 | 1.6 | 11.3 | 0.00 | 0.00 | 0.00 | 67 | 1031.5 |
| 20260505014538 | 20 | 107 | 4.8 | 11.3 | 0.00 | 0.00 | 0.00 | 66 | 1031.7 |
| 20260505013036 | 20 | 125 | 3.2 | 9.7 | 0.00 | 0.00 | 0.00 | 65 | 1031.8 |
| 20260505011547 | 21 | 53 | 1.6 | 4.8 | 0.00 | 0.00 | 0.00 | 65 | 1032.0 |
| 20260505010029 | 20 | 118 | 1.6 | 3.2 | 0.00 | 0.00 | 0.00 | 64 | 1032.2 |
| 20260505004536 | 20 | 80 | 0.0 | 4.8 | 0.00 | 0.00 | 0.00 | 69 | 1032.5 |
| 20260505003023 | 19 | 134 | 1.6 | 4.8 | 0.00 | 0.00 | 0.00 | 68 | 1032.7 |
| 20260505001519 | 20 | 135 | 0.0 | 1.6 | 0.00 | 0.00 | 0.00 | 67 | 1033.0 |
| 20260505000019 | 19 | 113 | 0.0 | 3.2 | 0.00 | 0.00 | 0.00 | 67 | 1033.1 |
| 20260504234518 | 20 | 86 | 1.6 | 4.8 | 0.00 | 0.00 | 0.00 | 65 | 1033.3 |
| 20260504233013 | 19 | 136 | 0.0 | 1.6 | 0.00 | 0.00 | 0.00 | 65 | 1033.4 |
| 20260504231509 | 18 | 123 | 0.0 | 3.2 | 0.00 | 0.00 | 0.00 | 69 | 1033.6 |
| 20260504230006 | 18 | 118 | 1.6 | 3.2 | 0.00 | 0.00 | 0.00 | 72 | 1033.8 |
| 20260504224502 | 17 | 129 | 0.0 | 4.8 | 0.00 | 0.00 | 0.00 | 73 | 1033.9 |
| 20260504223103 | 17 | 143 | 0.0 | 3.2 | 0.00 | 0.00 | 0.00 | 75 | 1033.9 |
| 20260504221606 | 16 | 143 | 0.0 | 3.2 | 0.00 | 0.00 | 0.00 | 75 | 1033.9 |
| 20260504220122 | 16 | 146 | 0.0 | 3.2 | 0.00 | 0.00 | 0.00 | 77 | 1033.8 |
| 20260504214551 | 16 | 154 | 0.0 | 4.8 | 0.00 | 0.00 | 0.00 | 78 | 1033.8 |
| 20260504213100 | 15 | 149 | 0.0 | 4.8 | 0.00 | 0.00 | 0.00 | 80 | 1033.8 |
| 20260504211544 | 15 | 158 | 0.0 | 4.8 | 0.00 | 0.00 | 0.00 | 80 | 1033.7 |
| 20260504210042 | 15 | 146 | 0.0 | 4.8 | 0.00 | 0.00 | 0.00 | 81 | 1033.8 |
| 20260504204557 | 14 | 146 | 0.0 | 3.2 | 0.00 | 0.00 | 0.00 | 82 | 1033.8 |
| 20260504203037 | 13 | 149 | 0.0 | 4.8 | 0.00 | 0.00 | 0.00 | 84 | 1033.8 |
| 20260504201535 | 13 | 143 | 0.0 | 3.2 | 0.00 | 0.00 | 0.00 | 84 | 1033.8 |
| 20260504200042 | 13 | 144 | 0.0 | 3.2 | 0.00 | 0.00 | 0.00 | 84 | 1033.6 |
| 20260504194539 | 12 | 146 | 1.6 | 4.8 | 0.00 | 0.00 | 0.00 | 84 | 1033.5 |
| 20260504193033 | 12 | 143 | 0.0 | 3.2 | 0.00 | 0.00 | 0.00 | 85 | 1033.4 |
| 20260504191536 | 12 | 143 | 0.0 | 1.6 | 0.00 | 0.00 | 0.00 | 84 | 1033.3 |
| 20260504190036 | 13 | 143 | 0.0 | 4.8 | 0.00 | 0.00 | 0.00 | 84 | 1033.3 |
| 20260504184535 | 13 | 146 | 0.0 | 4.8 | 0.00 | 0.00 | 0.00 | 83 | 1033.2 |
| 20260504183033 | 13 | 146 | 0.0 | 3.2 | 0.00 | 0.00 | 0.00 | 83 | 1033.2 |
| 20260504181529 | 13 | 149 | 0.0 | 1.6 | 0.00 | 0.00 | 0.00 | 83 | 1033.3 |
| 20260504180029 | 13 | 151 | 1.6 | 4.8 | 0.00 | 0.00 | 0.00 | 83 | 1033.3 |
| 20260504174527 | 13 | 149 | 0.0 | 3.2 | 0.00 | 0.00 | 0.00 | 83 | 1033.2 |
| 20260504173027 | 13 | 139 | 0.0 | 3.2 | 0.00 | 0.00 | 0.00 | 83 | 1033.3 |
| 20260504171525 | 13 | 139 | 0.0 | 1.6 | 0.00 | 0.00 | 0.00 | 82 | 1033.3 |
| 20260504081549 | 12 | 144 | 0.0 | 4.8 | 0.00 | 0.00 | 0.00 | 87 | 1034.7 |
| 20260504044537 | 18 | 113 | 0.0 | 3.2 | 0.00 | 0.00 | 0.00 | 66 | 1033.3 |
| 20260504043040 | 18 | 96 | 0.0 | 8.0 | 0.00 | 0.00 | 0.00 | 65 | 1033.3 |
| 20260504041533 | 19 | 106 | 1.6 | 4.8 | 0.00 | 0.00 | 0.00 | 62 | 1033.3 |
| 20260504040032 | 19 | 123 | 1.6 | 8.0 | 0.00 | 0.00 | 0.00 | 62 | 1033.2 |
| 20260504034530 | 19 | 96 | 1.6 | 4.8 | 0.00 | 0.00 | 0.00 | 61 | 1033.3 |
| 20260504033029 | 20 | 121 | 1.6 | 4.8 | 0.00 | 0.00 | 0.00 | 61 | 1033.3 |
| 20260504031522 | 20 | 108 | 0.0 | 6.4 | 0.00 | 0.00 | 0.00 | 60 | 1033.4 |
| 20260504030026 | 20 | 77 | 1.6 | 8.0 | 0.00 | 0.00 | 0.00 | 60 | 1033.4 |